                ,  0.945,  1.145,  1.345,  1.545,  1.745,  1.945,  2.145,  2.345,  2.545,  2.745,  2.945,  3.145,  3.345,  3.545,  3.745,  3.945,  4.145,  4.345,  4.545,  4.745,  4.945,  5.145,  5.345,  5.545,  5.745,  5.945,  6.145,  6.345,  6.545,  6.745,  6.945,  7.145,  7.345,  7.545,  7.745,  7.945,  8.145,  8.345,  8.545,  8.745,  8.945,  9.145,  9.345,  9.545,  9.745,  9.945
2000/06/03 00:00,  999.0,  999.0,  999.0,  999.0,  999.0,  999.0,  999.0,  999.0,  999.0,  999.0,  999.0,  999.0,  999.0,  999.0,  999.0,  999.0,  999.0,  999.0,  999.0,  999.0,  999.0,  999.0,  999.0,  999.0,  999.0,  999.0,  999.0,  999.0,  999.0,  999.0,  999.0,  999.0,  999.0,  999.0,  999.0,  999.0,  999.0,  999.0,  999.0,  999.0,  999.0,  999.0,  999.0,  999.0,  999.0,  999.0
2000/06/03 00:10,  999.0,  999.0,   -0.2,   -0.5,   -0.0,  999.0,   -0.1,   -0.0,    0.1,   -0.1,   -0.1,   -0.1,    0.0,    0.1,    0.0,    0.0,   -0.0,   -0.0,    0.0,  999.0,  999.0,   -0.4,   -0.7,   -0.8,   -0.8,   -0.9,   -0.9,   -0.9,   -1.0,   -1.0,   -1.0,   -1.0,   -0.9,   -0.9,   -0.9,   -0.8,   -0.7,   -0.6,   -0.5,   -0.4,   -0.3,   -0.1,   -0.2,    0.0,  999.0,  999.0
2000/06/03 00:20,   -0.1,   -0.4,  999.0,    0.3,    0.3,   -0.5,    0.5,  999.0,   -0.1,    0.0,   -0.0,   -0.2,    0.2,  999.0,  999.0,   -0.0,  999.0,   -0.0,  999.0,    0.2,    0.3,    0.2,   -0.3,   -0.6,   -0.7,   -0.8,   -0.8,   -0.8,   -0.8,   -0.7,   -0.7,   -0.6,   -0.6,   -0.7,   -0.7,   -0.6,   -0.6,   -0.5,   -0.4,   -0.4,   -0.3,   -0.2,   -0.3,   -0.4,    0.2,  999.0
2000/06/03 00:30,  999.0,  999.0,   -0.1,   -0.3,  999.0,   -0.3,  999.0,  999.0,   -0.1,  999.0,   -0.2,   -0.0,   -0.3,  999.0,  999.0,    0.0,  999.0,    0.0,  999.0,  999.0,    0.2,    0.1,    0.2,   -0.2,   -0.6,   -0.7,   -0.7,   -0.7,   -0.7,   -0.7,   -0.6,   -0.6,   -0.6,   -0.6,   -0.7,   -0.6,   -0.5,   -0.5,   -0.5,   -0.4,   -0.6,   -0.4,   -0.6,   -0.6,   -0.6,  999.0
2000/06/03 00:40,    0.3,    0.2,   -0.0,   -0.0,  999.0,   -0.4,   -0.1,  999.0,    0.2,    0.0,    0.1,   -0.1,   -0.0,    0.2,  999.0,  999.0,   -0.0,   -0.1,   -0.1,  999.0,   -0.2,   -0.1,   -0.3,   -0.9,   -1.0,   -0.9,   -1.0,   -1.0,   -0.8,   -0.7,   -0.6,   -0.6,   -0.5,   -0.5,   -0.5,   -0.5,   -0.6,   -0.5,   -0.4,   -0.3,   -0.3,   -0.4,   -0.3,   -0.4,   -0.5,   -0.2
2000/06/03 00:50,   -0.0,    0.0,  999.0,   -0.1,  999.0,    0.1,    0.2,    0.4,    0.4,  999.0,  999.0,    0.4,  999.0,    0.2,    0.1,    0.3,  999.0,  999.0,    0.0,    0.0,  999.0,    0.1,    0.0,   -0.5,   -0.6,   -0.6,   -0.7,   -0.7,   -0.7,   -0.7,   -0.6,   -0.7,   -0.6,   -0.7,   -0.8,   -0.8,   -0.8,   -0.7,   -0.8,   -0.8,   -0.6,   -0.7,   -0.6,   -0.7,   -0.5,   -0.4
2000/06/03 01:00,   -0.3,  999.0,   -0.4,   -0.3,  999.0,    0.5,  999.0,  999.0,  999.0,  999.0,  999.0,  999.0,  999.0,    0.3,   -0.3,  999.0,  999.0,  999.0,    0.0,  999.0,    0.1,    0.1,   -0.0,   -0.4,   -0.6,   -0.6,   -0.7,   -0.7,   -0.7,   -0.7,   -0.8,   -0.8,   -0.7,   -0.8,   -0.8,   -0.8,   -0.8,   -0.7,   -0.7,   -0.7,   -0.7,   -0.6,   -0.6,   -0.5,   -0.6,   -0.5
2000/06/03 01:10,   -0.0,    0.3,    0.2,  999.0,   -0.4,   -0.0,   -0.0,  999.0,   -0.2,   -0.2,  999.0,   -0.1,  999.0,  999.0,  999.0,  999.0,   -0.1,  999.0,   -0.2,  999.0,  999.0,   -0.2,   -0.3,   -0.6,   -0.7,   -0.7,   -0.8,   -0.7,   -0.7,  999.0,   -1.1,   -1.0,   -1.0,   -1.1,   -1.0,   -1.0,   -0.9,   -0.8,   -0.8,   -0.8,   -0.7,   -0.7,   -0.6,   -0.7,   -0.7,   -0.6
2000/06/03 01:20,    0.3,  999.0,    0.2,  999.0,    0.6,  999.0,    0.1,  999.0,   -0.0,   -0.0,   -0.0,   -0.2,    0.0,  999.0,    0.0,    0.0,   -0.1,  999.0,   -0.3,   -0.2,   -0.1,   -0.4,   -0.6,   -0.9,   -0.9,   -0.9,   -1.0,   -1.0,   -1.0,   -1.0,   -0.9,   -0.9,   -1.0,   -1.1,   -0.9,   -0.9,   -0.9,   -0.9,   -0.9,   -0.8,   -0.7,   -0.8,   -0.7,   -0.8,   -0.6,   -0.5
2000/06/03 01:30,  999.0,  999.0,    0.6,    0.1,  999.0,  999.0,  999.0,  999.0,  999.0,    0.2,  999.0,   -0.1,    0.1,   -0.1,   -0.0,   -0.1,   -0.7,  999.0,   -1.2,   -1.1,   -1.1,   -1.0,   -1.0,   -1.1,   -0.9,   -1.0,   -1.1,   -1.1,   -1.0,   -1.0,   -1.0,   -0.9,   -0.9,   -0.9,   -0.8,   -0.8,   -0.8,   -0.8,   -0.8,   -0.8,   -0.8,   -0.7,   -0.7,   -0.7,   -0.6,   -0.7
2000/06/03 01:40,    0.2,  999.0,  999.0,  999.0,  999.0,   -0.1,  999.0,  999.0,  999.0,  999.0,    0.1,  999.0,    0.1,    0.0,   -0.2,   -0.8,  999.0,  999.0,   -1.0,   -1.0,   -0.9,   -0.9,   -0.9,   -0.9,   -0.8,   -0.9,   -0.9,   -0.9,   -0.9,   -0.7,   -0.8,   -0.8,   -0.8,   -0.7,   -0.6,   -0.6,   -0.6,   -0.7,   -0.6,   -0.6,   -0.6,   -0.7,   -0.6,   -0.6,   -0.6,   -0.6
2000/06/03 01:50,    0.2,    0.3,    0.1,  999.0,    0.3,  999.0,   -0.1,   -0.1,   -0.2,   -0.1,   -0.1,   -0.1,  999.0,   -0.6,   -0.9,   -0.9,   -1.0,   -1.0,   -1.0,   -1.0,   -1.0,   -1.0,   -0.8,   -0.7,   -0.6,   -0.8,   -0.8,   -0.8,   -0.6,   -0.6,   -0.7,  999.0,  999.0,   -0.7,   -0.7,   -0.6,   -0.7,   -0.7,   -0.8,   -0.8,   -0.7,   -0.7,   -0.6,   -0.6,   -0.5,   -0.6
2000/06/03 02:00,    0.1,    0.3,   -0.4,   -0.0,  999.0,    0.1,    0.1,   -0.2,  999.0,    0.2,  999.0,    0.0,   -0.6,   -0.7,   -1.0,   -1.0,  999.0,   -1.1,   -1.0,   -1.0,   -1.1,   -1.0,   -0.8,   -0.7,   -0.7,   -0.7,   -0.7,   -0.6,  999.0,  999.0,  999.0,   -0.5,   -0.6,   -0.9,   -0.8,   -0.5,   -0.5,   -0.6,   -0.7,   -0.6,   -0.6,   -0.6,   -0.6,   -0.5,   -0.6,   -0.5
2000/06/03 02:10,    0.2,  999.0,  999.0,  999.0,    0.2,    0.0,  999.0,  999.0,  999.0,    0.2,  999.0,    0.1,    0.1,  999.0,   -0.4,   -0.7,   -0.8,   -0.8,   -0.7,   -0.6,   -0.7,   -0.8,   -0.8,   -0.7,   -0.6,   -0.5,   -0.5,   -0.5,   -0.8,  999.0,  999.0,  999.0,   -0.3,  999.0,  999.0,  999.0,  999.0,  999.0,  999.0,  999.0,   -0.6,   -0.5,   -0.4,   -0.5,   -0.6,   -0.8
2000/06/03 02:20,  999.0,  999.0,    0.1,  999.0,   -0.1,  999.0,    0.0,  999.0,  999.0,   -0.4,  999.0,   -0.0,   -0.0,   -0.3,    0.1,    0.1,   -0.4,   -0.8,   -0.4,   -0.4,   -0.8,   -0.7,   -0.7,   -0.6,   -0.5,   -0.6,   -0.8,   -0.8,  999.0,  999.0,   -0.8,   -0.8,   -0.9,  999.0,  999.0,  999.0,  999.0,  999.0,  999.0,  999.0,   -0.4,   -0.5,   -0.4,   -0.5,   -0.5,   -0.6
2000/06/03 02:30,  999.0,  999.0,  999.0,  999.0,  999.0,    0.1,    0.2,  999.0,    0.2,  999.0,    0.3,    0.2,  999.0,   -0.1,   -0.2,   -0.6,   -0.5,   -0.6,   -0.7,   -0.6,   -0.7,   -0.7,   -0.7,   -0.6,   -0.6,   -0.6,   -0.8,   -0.7,   -0.7,   -0.6,   -0.8,   -0.7,   -0.6,   -0.5,  999.0,  999.0,  999.0,  999.0,  999.0,  999.0,   -0.6,   -0.5,   -0.4,   -0.3,   -0.4,   -0.3
2000/06/03 02:40,  999.0,    0.1,  999.0,    0.3,   -0.1,   -0.0,    0.2,  999.0,    0.0,  999.0,  999.0,  999.0,  999.0,   -1.3,   -1.1,   -1.1,   -1.0,   -1.1,   -1.1,   -1.0,   -0.9,   -0.8,   -0.6,   -0.6,   -0.5,   -0.7,   -0.8,   -0.7,   -0.7,   -0.7,  999.0,   -0.7,   -0.7,  999.0,  999.0,  999.0,  999.0,  999.0,  999.0,   -0.6,   -0.5,  999.0,   -0.8,   -0.8,   -0.5,   -0.6
2000/06/03 02:50,  999.0,  999.0,  999.0,    0.1,    0.0,  999.0,  999.0,  999.0,    0.1,    0.2,  999.0,    0.9,   -0.0,    0.1,   -0.4,   -0.8,   -0.9,   -1.0,   -1.0,   -0.9,   -0.9,   -0.8,   -0.8,   -0.6,   -0.7,   -0.8,   -0.8,   -0.7,   -0.7,   -0.9,   -0.7,   -0.7,   -0.7,   -0.7,  999.0,  999.0,   -0.6,   -0.6,   -0.6,   -0.7,   -0.6,   -0.7,   -0.5,   -0.4,   -0.5,  999.0
2000/06/03 03:00,  999.0,  999.0,  999.0,   -0.1,    0.3,   -0.2,   -0.1,  999.0,  999.0,   -0.1,   -0.3,  999.0,  999.0,  999.0,    0.0,   -0.3,   -0.6,   -0.7,   -0.7,   -0.7,   -0.7,   -0.7,   -0.7,   -0.6,   -0.6,   -0.7,   -0.8,   -0.7,   -0.7,   -0.7,   -0.8,   -0.7,   -0.8,   -0.4,  999.0,   -0.6,   -0.6,   -0.7,   -0.7,   -0.7,   -0.8,   -0.7,   -0.7,   -0.6,   -0.5,   -0.4
2000/06/03 03:10,  999.0,  999.0,    0.0,  999.0,    0.0,   -0.1,   -0.1,  999.0,  999.0,  999.0,  999.0,  999.0,  999.0,   -0.1,   -0.1,   -0.5,   -0.7,   -0.8,   -0.8,   -0.7,   -0.7,   -0.7,   -0.5,   -0.7,   -0.5,   -0.7,   -0.8,   -0.7,   -0.6,   -0.5,  999.0,   -0.6,   -0.7,   -0.2,   -0.3,   -0.6,   -0.6,   -0.7,   -0.8,   -0.9,   -0.8,   -0.7,   -0.8,   -0.7,   -0.8,   -0.8
2000/06/03 03:20,  999.0,  999.0,    0.1,    0.1,    0.1,  999.0,    0.1,  999.0,  999.0,  999.0,  999.0,   -0.1,   -0.3,   -0.0,   -0.2,   -0.6,   -0.6,   -0.8,   -0.9,   -0.8,   -0.6,   -0.5,   -0.6,   -0.7,   -0.6,   -0.6,   -0.7,   -0.6,  999.0,  999.0,   -1.2,   -1.0,   -0.9,   -0.5,   -0.8,   -0.8,   -0.8,   -0.8,   -0.7,   -0.6,   -0.6,   -0.6,   -0.7,   -0.7,   -0.8,   -0.7
2000/06/03 03:30,  999.0,  999.0,    0.2,  999.0,    0.1,    0.2,  999.0,  999.0,    0.1,   -0.0,  999.0,    0.1,    0.1,   -0.1,   -0.1,   -0.4,   -0.7,   -0.7,   -0.7,   -0.6,   -0.5,   -0.5,   -0.7,   -0.8,   -0.6,   -0.4,   -0.6,   -0.9,   -1.0,   -1.0,   -1.0,   -0.9,   -0.9,   -0.8,   -0.8,   -0.8,   -0.8,   -0.7,   -0.7,   -0.7,   -0.6,   -0.6,   -0.6,   -0.6,   -0.7,   -0.7
2000/06/03 03:40,    0.4,  999.0,  999.0,  999.0,   -0.0,    0.0,    0.1,  999.0,  999.0,    0.1,    0.2,    0.2,    0.3,   -0.2,   -0.7,   -0.6,   -0.7,   -0.7,   -0.6,   -0.7,   -0.6,   -0.6,   -0.7,   -0.9,   -0.9,   -1.0,   -1.1,   -1.1,   -1.1,   -1.1,   -1.1,   -1.0,   -1.0,   -0.9,   -0.9,   -0.9,   -0.8,   -0.8,   -0.7,   -0.7,   -0.7,   -0.7,   -0.8,   -0.7,   -0.7,   -0.7
2000/06/03 03:50,    0.1,  999.0,  999.0,  999.0,    0.3,    0.0,  999.0,  999.0,  999.0,    0.2,    0.3,    0.3,    0.4,    0.1,   -0.6,   -0.6,   -0.7,   -0.8,   -0.9,   -0.8,   -0.8,   -0.8,   -0.8,   -0.9,   -1.1,   -1.2,  999.0,   -1.3,   -1.2,   -1.2,   -1.1,   -0.9,   -0.9,   -0.9,   -0.9,   -0.9,   -0.8,   -0.9,   -0.8,   -0.7,   -0.7,   -0.8,   -0.7,   -0.7,   -0.7,   -0.6
2000/06/03 04:00,   -0.1,   -0.2,    0.2,    0.2,    0.6,    0.3,    0.3,    0.3,    0.2,    0.2,   -0.8,  999.0,   -0.9,   -0.8,   -0.7,   -0.9,   -0.9,   -1.1,   -1.1,   -0.9,   -0.9,   -1.0,   -1.0,   -1.1,   -1.1,   -1.2,  999.0,   -1.3,   -1.3,   -1.2,   -1.2,   -1.1,   -1.1,   -1.1,   -1.0,   -1.0,   -1.0,   -0.9,   -1.0,   -0.8,   -0.8,   -0.8,   -0.7,   -0.6,   -0.6,   -0.6
2000/06/03 04:10,  999.0,    0.2,    0.1,    0.0,  999.0,  999.0,   -2.6,   -2.7,   -1.4,   -2.5,   -3.0,   -2.3,   -1.0,   -1.1,   -1.1,   -1.2,   -1.3,   -1.2,   -1.1,   -1.1,   -1.1,   -1.1,   -1.2,   -1.1,   -1.1,   -1.1,   -1.2,   -1.2,   -1.2,   -1.2,   -1.2,   -1.1,   -1.1,   -1.1,   -1.0,   -1.0,   -1.0,   -0.9,   -0.9,   -0.9,   -0.9,   -0.8,   -0.8,   -0.8,   -0.7,   -0.6
2000/06/03 04:20,    0.1,  999.0,    0.1,    0.1,  999.0,  999.0,  999.0,  999.0,  999.0,  999.0,   -3.2,   -2.3,   -1.2,   -1.2,   -1.3,   -1.3,   -1.3,   -1.3,  999.0,   -1.4,   -1.2,   -1.2,   -1.2,  999.0,  999.0,   -1.2,   -1.3,   -1.4,   -1.4,   -1.3,   -1.2,   -1.2,   -1.2,   -1.2,   -1.2,   -1.0,   -1.0,   -1.0,   -0.9,   -0.9,   -0.9,   -0.7,   -0.8,   -0.6,   -0.6,   -0.6
2000/06/03 04:30,    0.1,   -0.0,    0.0,  999.0,   -2.5,   -3.8,   -4.0,   -3.8,   -2.8,   -3.8,   -3.9,   -2.5,   -1.4,   -1.1,   -1.2,   -1.3,   -1.3,  999.0,   -1.2,   -1.2,   -1.3,   -1.3,  999.0,   -1.3,  999.0,  999.0,  999.0,   -1.4,   -1.3,   -1.1,   -1.0,   -1.0,   -0.9,   -0.9,   -0.8,   -0.8,   -0.7,   -0.7,   -0.7,   -0.7,   -0.5,   -0.5,  999.0,   -0.4,   -0.4,   -0.2
2000/06/03 04:40,    0.1,   -1.8,  999.0,   -4.1,   -3.8,   -3.8,   -4.2,   -4.0,   -4.1,   -4.1,   -3.9,   -2.6,   -1.5,   -1.2,   -1.1,   -1.3,  999.0,   -1.3,   -1.3,  999.0,  999.0,  999.0,  999.0,  999.0,  999.0,   -0.8,   -0.9,   -1.1,   -1.1,   -1.0,   -1.0,   -0.9,   -0.9,   -0.8,   -0.8,   -0.7,   -0.6,   -0.6,   -0.6,   -0.5,   -0.6,   -0.6,   -0.6,   -0.5,   -0.5,   -0.3
2000/06/03 04:50,   -4.0,   -4.3,   -4.3,   -4.2,   -4.2,   -4.5,   -4.3,   -4.4,   -4.3,   -4.7,   -4.4,   -2.6,   -1.3,   -1.2,   -1.3,   -1.2,   -1.2,  999.0,  999.0,  999.0,  999.0,  999.0,  999.0,   -0.8,   -0.9,   -1.0,   -1.1,   -1.1,   -1.1,   -1.1,   -1.1,   -1.0,   -1.0,   -1.0,   -0.9,   -0.9,   -0.8,   -0.7,   -0.7,  999.0,   -0.7,   -0.7,   -0.6,   -0.6,   -0.6,   -0.4
2000/06/03 05:00,   -3.8,   -3.7,   -3.4,   -3.7,   -3.8,   -3.8,   -3.7,   -3.8,   -3.5,   -3.6,   -3.6,   -2.4,   -1.3,   -1.1,   -0.9,  999.0,   -1.0,   -0.8,  999.0,  999.0,   -0.6,   -0.7,   -0.8,  999.0,   -0.7,   -0.9,   -1.0,   -1.1,   -1.2,   -1.3,   -1.3,   -1.2,   -1.2,   -1.2,   -1.2,   -1.2,   -1.1,   -1.0,   -0.9,   -1.0,   -0.9,   -0.9,   -0.8,   -0.8,   -0.7,   -0.6
2000/06/03 05:10,  999.0,  999.0,  999.0,  999.0,   -3.4,   -2.9,   -2.2,  999.0,  999.0,  999.0,   -1.1,   -1.1,   -0.8,   -0.7,   -0.8,   -0.7,   -0.8,   -0.8,   -0.8,   -0.7,   -0.6,   -0.6,   -0.6,  999.0,   -0.8,   -1.2,   -1.2,   -1.2,   -1.1,   -1.2,   -1.1,   -1.1,   -1.2,   -1.1,   -1.2,   -1.1,   -1.0,   -0.9,   -0.8,  999.0,   -0.9,  999.0,   -0.6,   -0.6,   -0.5,   -0.5
2000/06/03 05:20,  999.0,  999.0,   -0.1,   -0.0,    0.1,   -0.0,   -0.0,   -1.4,  999.0,  999.0,  999.0,    0.0,   -0.7,   -0.7,   -0.9,   -1.0,   -0.9,   -0.8,   -0.7,   -0.6,   -0.4,   -0.2,   -0.3,  999.0,  999.0,   -0.9,   -0.9,   -1.0,   -1.1,   -1.3,   -1.3,   -1.2,   -1.2,   -1.3,   -1.3,   -1.2,   -1.1,   -1.0,   -1.0,   -0.9,   -1.0,   -1.0,   -0.8,   -0.7,   -0.7,   -0.6
2000/06/03 05:30,   -0.2,  999.0,   -0.1,   -0.2,  999.0,  999.0,   -0.1,  999.0,    0.1,    0.3,    0.3,   -0.4,   -0.3,   -0.8,   -0.9,   -1.0,   -1.2,   -1.1,   -0.7,   -0.4,   -0.1,   -0.1,  999.0,  999.0,  999.0,  999.0,   -0.6,   -0.9,   -1.0,   -1.1,   -1.1,   -1.3,   -1.3,   -1.3,   -1.2,   -1.1,   -1.1,   -1.1,   -0.9,   -0.9,   -0.8,   -0.8,   -0.8,   -0.7,   -0.5,   -0.6
2000/06/03 05:40,   -0.1,  999.0,   -0.1,  999.0,   -0.2,   -0.2,   -0.2,   -0.3,   -0.2,  999.0,  999.0,   -0.1,   -0.5,   -0.6,   -0.8,   -0.9,   -0.9,   -0.8,   -0.3,   -0.1,    0.1,  999.0,  999.0,  999.0,  999.0,  999.0,   -0.7,   -0.9,   -1.0,   -1.1,   -0.9,   -1.0,   -0.9,   -0.9,   -0.9,   -0.9,   -0.9,   -0.8,   -0.6,   -0.7,   -0.5,   -0.5,   -0.5,   -0.3,   -0.6,   -0.3
2000/06/03 05:50,    0.1,  999.0,   -0.1,   -0.3,   -0.3,   -0.3,   -0.6,   -0.5,  999.0,   -0.3,   -0.3,    0.1,   -0.4,   -0.6,   -0.7,   -0.6,   -0.5,   -0.4,   -0.2,   -0.1,   -0.1,  999.0,  999.0,  999.0,  999.0,   -0.4,   -0.6,   -0.8,   -1.0,   -1.1,   -1.0,   -1.0,   -1.0,   -1.1,   -1.0,   -1.1,   -1.0,   -0.8,   -0.7,   -0.7,   -0.6,   -0.5,   -0.5,   -0.4,   -0.5,   -0.6
2000/06/03 06:00,  999.0,  999.0,    0.5,    0.5,    0.4,    0.4,    0.3,  999.0,    0.2,    0.3,  999.0,    0.2,   -0.5,  999.0,   -0.3,   -0.3,   -0.4,    0.0,   -0.0,  999.0,    0.1,  999.0,  999.0,  999.0,  999.0,   -0.8,   -0.9,   -1.1,   -1.1,   -1.1,   -1.1,   -1.0,   -1.1,   -1.1,   -1.2,   -1.1,   -1.1,   -0.9,   -0.7,   -0.7,   -0.7,   -0.8,   -0.8,   -0.7,   -0.6,   -0.5
2000/06/03 06:10,   -0.1,  999.0,  999.0,  999.0,   -0.2,   -0.3,   -0.2,  999.0,   -0.2,  999.0,  999.0,  999.0,   -0.3,   -0.4,  999.0,   -0.4,   -0.5,   -0.2,   -0.2,  999.0,  999.0,  999.0,  999.0,  999.0,   -0.4,   -1.1,   -0.8,   -1.0,   -1.1,   -1.1,   -1.1,   -1.1,   -1.2,   -1.2,   -1.1,   -1.0,   -0.9,   -0.9,   -1.0,   -0.9,   -0.9,   -0.9,   -0.7,   -0.6,   -0.6,   -0.7
2000/06/03 06:20,    0.4,  999.0,  999.0,  999.0,  999.0,    0.0,  999.0,   -0.3,   -0.4,   -0.3,   -0.4,   -0.2,   -0.1,   -0.2,  999.0,   -0.2,   -0.1,    0.1,  999.0,   -0.1,  999.0,  999.0,  999.0,  999.0,  999.0,   -0.8,   -0.9,   -1.0,   -1.1,   -1.2,   -1.1,   -1.2,   -1.2,   -1.2,   -1.1,   -1.1,   -1.0,   -1.0,   -0.9,   -0.9,   -0.8,   -0.7,   -0.7,   -0.6,   -0.6,   -0.6
2000/06/03 06:30,    0.1,    0.2,    0.2,    0.2,  999.0,   -0.1,  999.0,  999.0,  999.0,  999.0,   -0.2,   -0.0,  999.0,  999.0,  999.0,   -0.1,   -0.1,   -0.3,   -0.1,  999.0,  999.0,  999.0,  999.0,  999.0,   -0.9,   -1.0,   -1.0,   -1.1,   -1.2,   -1.2,   -1.2,   -1.2,   -1.2,   -1.2,   -1.2,   -1.2,   -1.1,   -1.0,   -1.0,   -0.9,   -0.9,   -0.8,   -0.7,   -0.7,   -0.4,   -0.5
2000/06/03 06:40,   -0.3,   -0.3,  999.0,   -0.3,   -0.2,   -0.1,   -0.3,  999.0,    0.3,  999.0,  999.0,  999.0,    0.1,  999.0,    0.0,   -0.2,   -0.3,   -0.3,   -0.3,   -0.2,   -0.1,  999.0,  999.0,  999.0,   -0.8,   -0.9,   -1.0,   -1.2,   -1.2,   -1.2,   -1.2,   -1.2,   -1.3,   -1.3,   -1.3,   -1.2,   -1.1,   -0.9,   -0.8,   -0.7,   -0.7,   -0.7,   -0.7,   -0.6,   -0.7,   -0.7
2000/06/03 06:50,  999.0,   -0.4,  999.0,  999.0,    0.1,  999.0,    0.4,    0.3,  999.0,    0.2,   -0.0,  999.0,  999.0,    0.0,   -0.4,   -0.6,   -0.5,   -0.3,   -0.4,   -0.2,  999.0,  999.0,  999.0,   -0.5,   -0.8,   -1.0,   -1.1,   -1.2,   -1.2,   -1.1,   -1.1,   -1.1,   -1.1,   -1.2,   -1.2,   -1.0,   -0.9,   -0.7,   -0.7,   -0.8,   -0.7,   -0.7,   -0.7,   -0.6,   -0.6,   -0.5
2000/06/03 07:00,   -0.3,   -0.2,    0.1,    0.0,    0.2,  999.0,   -0.2,  999.0,   -0.1,  999.0,   -0.1,   -0.4,   -0.4,   -0.9,   -0.9,   -0.9,   -0.1,   -0.3,    0.5,    0.1,    0.4,   -0.4,   -0.6,   -0.8,   -1.0,   -1.0,   -1.1,   -1.0,   -1.0,   -1.0,   -0.9,   -1.0,   -0.9,   -0.9,   -0.9,   -0.8,   -0.8,   -0.7,   -0.7,   -0.6,   -0.7,   -0.6,   -0.6,   -0.5,   -0.5,   -0.4
2000/06/03 07:10,   -0.3,   -0.3,   -0.2,    0.1,    0.3,  999.0,  999.0,   -0.4,    0.1,  999.0,  999.0,   -0.4,   -1.0,   -0.9,   -0.9,   -0.7,   -0.9,   -0.5,   -0.2,   -0.1,   -0.6,   -0.7,   -0.9,   -0.9,   -1.0,   -1.1,   -1.1,   -1.0,   -1.1,   -1.0,   -1.1,   -1.1,   -1.1,   -1.1,   -0.9,   -0.8,   -0.7,   -0.7,   -0.6,   -0.6,   -0.6,   -0.6,   -0.5,   -0.4,   -0.5,   -0.5
2000/06/03 07:20,    0.4,  999.0,    0.1,   -0.1,   -0.1,    0.1,    0.6,    0.4,  999.0,    0.2,  999.0,    0.2,    0.2,   -0.1,   -0.6,   -0.5,   -0.7,   -0.7,   -0.7,   -0.3,  999.0,   -1.0,   -1.0,   -1.1,   -1.2,   -1.3,   -1.3,   -1.2,   -1.2,   -1.1,   -1.1,   -1.1,   -1.1,   -1.1,   -1.0,   -0.9,   -0.9,   -0.8,   -0.7,   -0.6,   -0.6,   -0.5,   -0.4,   -0.5,   -0.4,   -0.5
2000/06/03 07:30,  999.0,  999.0,    0.3,    0.1,   -0.1,  999.0,  999.0,   -0.0,  999.0,  999.0,   -0.7,  999.0,   -0.7,   -0.7,   -0.8,   -1.1,   -1.0,   -1.1,   -1.2,   -1.1,   -1.2,   -1.1,   -1.0,   -1.1,   -1.2,   -1.2,   -1.1,   -1.1,   -1.1,   -1.2,   -1.1,   -1.0,   -1.0,   -1.0,   -0.8,   -0.7,   -0.6,   -0.6,   -0.5,   -0.5,   -0.4,   -0.4,   -0.3,   -0.3,   -0.4,   -0.4
2000/06/03 07:40,    0.1,  999.0,   -0.0,   -0.0,  999.0,  999.0,  999.0,   -0.2,   -0.1,  999.0,  999.0,  999.0,   -0.8,   -0.6,   -0.7,   -1.5,   -1.3,   -1.3,   -1.3,  999.0,   -1.2,   -1.3,   -1.3,   -1.3,   -1.4,   -1.3,   -1.3,   -1.3,   -1.4,   -1.3,   -1.3,   -1.3,   -1.3,   -1.1,   -1.0,   -0.9,   -0.8,   -0.7,   -0.7,   -0.7,   -0.7,   -0.7,   -0.7,   -0.6,   -0.5,   -0.5
2000/06/03 07:50,  999.0,    0.0,    0.2,    0.0,    0.2,  999.0,   -0.1,   -0.1,  999.0,  999.0,    0.1,  999.0,    0.1,   -0.9,   -1.0,   -1.0,   -1.2,   -1.1,   -1.1,   -1.2,   -1.1,   -1.1,   -1.2,   -1.4,   -1.5,   -1.4,   -1.3,   -1.4,   -1.4,   -1.4,   -1.4,   -1.4,   -1.3,   -1.2,   -1.0,   -0.9,   -0.8,   -0.8,   -0.8,   -0.8,   -0.7,   -0.7,   -0.7,   -0.7,   -0.7,   -0.7
2000/06/03 08:00,   -0.2,   -0.0,  999.0,   -0.0,  999.0,  999.0,    0.0,  999.0,  999.0,  999.0,  999.0,    0.2,  999.0,   -0.9,   -1.0,   -1.1,   -1.2,   -1.3,   -1.4,   -1.4,   -1.4,   -1.4,  999.0,   -1.5,   -1.6,   -1.4,   -1.4,   -1.4,   -1.3,   -1.3,   -1.3,   -1.2,   -1.2,   -1.1,   -1.1,   -1.0,   -1.0,   -0.9,   -0.8,   -0.8,   -0.7,   -0.7,   -0.6,   -0.6,   -0.7,   -0.7
2000/06/03 08:10,   -0.1,   -0.2,    0.1,    0.2,    0.2,    0.2,    0.2,  999.0,  999.0,    0.2,   -1.8,   -0.9,   -0.9,   -1.4,   -1.4,   -1.4,  999.0,   -1.5,   -1.4,   -1.5,   -1.4,   -1.4,   -1.4,   -1.6,   -1.5,   -1.4,   -1.3,   -1.4,   -1.4,   -1.3,   -1.2,   -1.1,   -1.1,   -1.0,   -0.9,   -0.8,   -0.7,   -0.7,   -0.7,   -0.7,   -0.6,   -0.6,   -0.6,   -0.5,   -0.5,   -0.4
2000/06/03 08:20,   -0.0,  999.0,   -0.1,    0.1,  999.0,  999.0,  999.0,   -0.8,   -2.4,   -3.2,   -3.2,   -3.1,   -1.8,   -1.4,   -1.4,   -1.4,   -1.3,   -1.4,   -1.3,   -1.3,   -1.4,   -1.2,   -1.3,   -1.4,   -1.4,   -1.2,   -1.1,   -1.1,   -1.1,   -1.1,   -1.1,   -1.1,   -1.0,   -0.9,   -0.8,   -0.7,   -0.8,   -0.8,   -0.8,   -0.7,   -0.7,   -0.6,   -0.6,   -0.6,   -0.5,   -0.4
2000/06/03 08:30,   -0.1,  999.0,   -0.2,  999.0,  999.0,  999.0,  999.0,  999.0,  999.0,  999.0,  999.0,  999.0,  999.0,   -0.8,   -1.1,   -1.2,   -1.3,   -1.3,   -1.4,   -1.3,   -1.3,  999.0,   -1.2,   -1.3,   -1.2,   -1.0,   -1.0,   -1.1,   -1.2,   -1.2,   -1.1,   -1.0,   -0.9,   -0.9,   -0.9,   -1.0,   -1.0,   -0.9,   -0.8,   -0.7,   -0.7,   -0.7,   -0.6,   -0.6,   -0.6,   -0.6
2000/06/03 08:40,  999.0,  999.0,   -0.1,  999.0,  999.0,   -0.1,   -0.0,  999.0,  999.0,  999.0,   -0.1,  999.0,   -1.1,   -0.6,   -1.0,   -1.0,   -1.0,   -1.3,   -1.3,   -1.3,   -1.2,   -1.2,   -1.3,   -1.3,   -1.4,   -1.3,   -1.2,   -1.2,   -1.3,   -1.4,   -1.3,   -1.1,   -0.9,   -0.8,   -0.9,   -0.9,   -0.8,   -0.8,   -0.7,   -0.7,   -0.7,   -0.6,   -0.6,   -0.6,   -0.6,   -0.6
2000/06/03 08:50,  999.0,    0.1,   -0.1,  999.0,   -0.2,   -0.1,  999.0,  999.0,  999.0,   -0.2,  999.0,    0.1,   -1.4,   -0.2,   -0.8,   -0.8,   -0.9,   -0.9,   -0.9,   -1.0,   -1.0,   -1.0,   -1.0,   -1.2,   -1.2,   -1.1,   -1.0,   -1.0,   -1.0,   -1.0,   -0.9,   -0.8,   -0.7,   -0.7,   -0.7,   -0.6,   -0.6,   -0.6,   -0.6,   -0.6,   -0.7,   -0.6,   -0.6,   -0.5,   -0.4,   -0.4
2000/06/03 09:00,    0.5,  999.0,    0.4,    0.3,    0.1,    0.1,    0.1,    0.3,    0.1,    0.1,  999.0,    0.2,   -1.0,   -0.6,   -0.6,   -0.9,   -1.0,   -0.6,   -0.8,   -0.7,  999.0,   -0.5,   -0.6,   -0.9,   -1.1,   -1.2,   -1.3,   -1.2,   -1.1,   -1.0,   -0.9,   -0.8,   -0.7,   -0.7,   -0.7,   -0.7,   -0.6,   -0.6,   -0.5,   -0.5,   -0.4,   -0.5,   -0.4,   -0.3,   -0.3,   -0.3
2000/06/03 09:10,    0.6,  999.0,    0.6,    0.3,    0.3,  999.0,  999.0,  999.0,  999.0,  999.0,  999.0,  999.0,    0.0,   -0.0,  999.0,   -0.4,   -0.2,   -1.0,   -0.4,   -0.9,   -0.9,   -1.0,   -1.2,   -1.3,   -1.2,   -1.2,   -1.1,   -1.1,   -1.1,   -0.9,   -0.8,   -0.8,   -0.8,   -0.7,   -0.6,   -0.5,   -0.4,   -0.3,   -0.3,   -0.5,   -0.4,   -0.4,   -0.4,   -0.2,   -0.3,   -0.3
2000/06/03 09:20,    0.6,    0.7,    0.6,    0.4,  999.0,  999.0,    0.2,    0.2,    0.2,  999.0,    0.1,  999.0,   -0.4,   -0.0,    0.0,   -0.6,   -1.0,   -0.7,   -0.8,   -0.9,   -1.0,   -1.1,   -1.2,   -1.2,   -1.2,   -1.1,   -1.0,   -1.1,   -1.0,   -0.9,   -0.9,   -0.9,   -0.8,   -0.8,   -0.7,   -0.7,   -0.6,   -0.4,   -0.4,   -0.3,   -0.4,   -0.4,   -0.4,   -0.2,   -0.2,   -0.3
2000/06/03 09:30,    0.6,    0.9,    0.7,    0.3,    0.4,  999.0,  999.0,    0.6,  999.0,    0.4,    0.3,  999.0,    0.2,   -0.0,   -0.4,  999.0,  999.0,   -1.0,   -1.0,   -0.9,   -0.8,   -0.7,   -0.9,   -1.2,   -1.2,   -1.1,   -1.1,   -1.0,   -0.9,   -0.8,   -0.8,   -0.7,   -0.7,   -0.6,   -0.5,   -0.5,   -0.4,   -0.3,   -0.2,   -0.4,   -0.4,   -0.4,   -0.3,   -0.4,   -0.3,   -0.4
2000/06/03 09:40,    0.3,    0.5,    0.2,    0.2,    0.2,  999.0,  999.0,   -0.1,    0.3,  999.0,  999.0,  999.0,   -0.2,  999.0,  999.0,  999.0,  999.0,   -0.5,   -0.2,   -0.3,   -0.2,   -0.6,   -1.0,   -1.1,   -1.1,   -1.0,   -1.0,   -1.0,   -0.8,   -0.7,   -0.6,   -0.6,   -0.7,   -0.7,   -0.7,   -0.6,   -0.5,   -0.3,   -0.3,   -0.4,  999.0,   -0.4,   -0.4,   -0.4,   -0.4,   -0.6
2000/06/03 09:50,  999.0,  999.0,  999.0,  999.0,    0.3,    0.3,  999.0,  999.0,    0.2,    0.2,  999.0,  999.0,   -0.1,  999.0,  999.0,  999.0,   -0.3,   -0.3,   -0.5,   -0.0,   -0.1,   -0.6,   -0.8,   -0.9,   -0.9,   -0.9,   -0.8,   -0.8,   -0.7,   -0.6,   -0.5,   -0.6,   -0.6,   -0.6,   -0.5,   -0.4,   -0.3,   -0.5,   -0.4,   -0.2,  999.0,   -0.3,   -0.3,   -0.2,   -0.2,   -0.2
2000/06/03 10:00,   -0.1,   -0.1,    0.0,  999.0,    0.2,    0.1,    0.1,  999.0,    0.3,    0.2,    0.2,    0.1,  999.0,  999.0,  999.0,  999.0,   -0.0,   -0.2,   -0.3,   -0.3,   -0.7,   -0.8,   -1.0,   -1.0,   -1.0,   -0.8,   -0.8,   -0.7,   -0.7,   -0.6,   -0.7,   -0.6,   -0.7,   -0.6,   -0.5,   -0.6,   -0.5,   -0.5,   -0.5,  999.0,   -0.3,   -0.6,   -0.5,   -0.4,   -0.3,   -0.2
2000/06/03 10:10,   -0.1,   -0.1,  999.0,  999.0,  999.0,    0.0,   -0.3,  999.0,    0.3,  999.0,    0.1,    0.1,  999.0,  999.0,  999.0,  999.0,  999.0,   -0.1,    0.1,    0.2,    0.0,    0.1,    0.0,   -0.9,   -0.8,   -0.8,   -0.8,   -0.8,   -0.7,   -0.8,   -0.8,   -0.8,   -0.8,   -0.7,   -0.7,   -0.7,   -0.6,   -0.6,   -0.4,   -0.5,   -0.5,   -0.5,   -0.5,   -0.6,   -0.4,   -0.2
2000/06/03 10:20,    0.1,   -0.0,   -0.0,  999.0,  999.0,    0.1,    0.1,    0.2,  999.0,  999.0,   -0.0,  999.0,  999.0,   -0.3,  999.0,   -0.3,   -0.1,   -0.2,   -0.2,   -0.2,   -0.1,    0.2,    0.3,   -1.4,   -1.0,   -0.9,   -1.0,   -0.9,   -0.8,   -0.7,   -0.7,   -0.7,   -0.7,   -0.7,   -0.7,   -0.7,   -0.6,   -0.4,   -0.4,   -0.4,   -0.5,   -0.6,   -0.5,   -0.5,   -0.5,   -0.3
2000/06/03 10:30,    0.2,    0.2,    0.0,    0.1,    0.2,    0.0,   -0.0,  999.0,  999.0,  999.0,   -0.0,  999.0,  999.0,  999.0,   -0.3,  999.0,  999.0,    0.0,  999.0,    0.2,  999.0,    0.2,    0.0,   -0.1,   -0.7,   -0.9,   -0.9,   -0.9,   -0.8,   -0.7,   -0.7,   -0.7,   -0.8,   -0.7,   -0.7,   -0.6,   -0.7,   -0.5,   -0.5,   -0.5,   -0.4,   -0.5,   -0.5,   -0.4,   -0.3,   -0.4
2000/06/03 10:40,   -0.2,   -0.1,   -0.1,  999.0,  999.0,   -0.0,   -0.1,  999.0,   -0.2,  999.0,   -0.1,  999.0,  999.0,  999.0,  999.0,  999.0,  999.0,  999.0,  999.0,  999.0,  999.0,    0.0,    0.1,   -0.1,   -0.8,   -1.2,   -1.2,   -1.0,   -1.0,   -0.8,   -0.8,   -0.8,   -0.8,   -0.7,   -0.7,   -0.5,   -0.4,   -0.2,  999.0,  999.0,   -0.5,   -0.4,   -0.4,   -0.4,   -0.4,   -0.4
2000/06/03 10:50,   -0.5,    0.3,    0.0,    0.4,  999.0,    0.1,  999.0,   -0.1,   -0.1,   -0.1,  999.0,  999.0,   -0.1,  999.0,  999.0,  999.0,    0.1,  999.0,  999.0,  999.0,  999.0,    0.3,    0.2,    0.1,   -0.8,   -1.1,   -1.0,   -1.1,   -1.1,   -1.0,   -1.0,   -1.0,   -0.9,   -0.9,   -0.7,   -0.7,   -0.5,   -0.5,   -0.5,   -0.5,   -0.5,   -0.5,   -0.6,   -0.5,   -0.5,   -0.3
2000/06/03 11:00,   -0.0,    0.2,    0.3,    0.2,    0.1,    0.0,    0.1,    0.1,  999.0,   -0.1,  999.0,   -0.1,   -0.1,    0.1,  999.0,  999.0,  999.0,  999.0,  999.0,  999.0,  999.0,  999.0,    0.1,   -0.0,   -0.8,   -1.2,   -1.3,   -1.5,   -1.5,   -1.3,   -1.3,   -1.3,   -1.3,   -1.2,   -1.0,   -0.9,   -0.9,   -0.8,   -0.7,   -0.7,   -0.7,   -0.7,   -0.6,   -0.5,   -0.5,   -0.3
2000/06/03 11:10,  999.0,  999.0,  999.0,    0.2,    0.1,    0.0,    0.1,    0.1,  999.0,   -0.0,  999.0,    0.0,   -0.0,  999.0,    0.1,  999.0,  999.0,  999.0,  999.0,  999.0,  999.0,   -0.1,    0.2,   -0.0,   -1.0,   -1.7,   -1.5,   -1.6,   -1.7,   -1.4,   -1.2,   -1.1,   -1.1,   -1.0,   -0.9,   -0.8,   -0.8,   -0.7,   -0.6,   -0.6,   -0.6,   -0.6,   -0.6,   -0.6,   -0.3,   -0.5
2000/06/03 11:20,   -0.2,    0.2,    0.3,    0.1,  999.0,  999.0,    0.0,  999.0,  999.0,   -0.0,    0.1,  999.0,    0.2,    0.3,    0.3,  999.0,  999.0,  999.0,  999.0,  999.0,  999.0,  999.0,    0.0,    0.2,   -0.6,   -1.7,   -1.6,   -1.5,   -1.4,   -1.2,   -1.1,   -1.0,   -0.9,   -0.8,   -0.8,   -0.8,   -0.6,   -0.6,   -0.7,   -0.6,   -0.6,   -0.6,   -0.5,   -0.3,   -0.3,   -0.4
2000/06/03 11:30,    0.0,    0.7,    0.4,    0.3,    0.3,    0.1,  999.0,   -0.0,    0.1,  999.0,   -0.0,   -0.1,    0.1,  999.0,  999.0,  999.0,  999.0,    0.1,  999.0,  999.0,  999.0,   -0.5,   -0.4,    0.2,   -0.2,   -1.2,   -1.3,   -1.2,   -1.2,   -1.2,   -1.1,   -0.9,   -0.7,   -0.6,   -0.7,   -0.5,   -0.6,   -0.5,   -0.5,  999.0,   -0.4,   -0.3,   -0.3,   -0.3,   -0.3,   -0.4
2000/06/03 11:40,    0.1,    1.1,    1.0,    0.6,  999.0,    0.3,    0.2,    0.0,   -0.0,  999.0,   -0.1,   -0.1,  999.0,  999.0,   -0.1,  999.0,   -0.1,   -0.2,  999.0,  999.0,  999.0,    0.1,   -0.2,   -0.1,    0.0,   -0.8,   -1.1,   -1.3,   -1.2,   -1.1,   -1.0,   -1.0,   -0.9,   -1.0,   -0.8,   -0.7,   -0.7,   -0.7,   -0.7,   -0.7,   -0.7,   -0.6,   -0.7,   -0.6,   -0.5,   -0.5
2000/06/03 11:50,   -0.0,    1.0,    1.3,    0.5,    0.3,    0.2,    0.1,    0.1,    0.0,   -0.1,   -0.1,   -0.2,   -0.2,   -0.2,   -0.2,  999.0,   -0.3,  999.0,  999.0,  999.0,  999.0,  999.0,   -0.1,   -0.1,   -0.8,   -1.5,   -1.4,   -1.3,   -1.3,   -1.3,   -1.2,   -1.1,   -1.0,   -0.9,   -0.7,   -0.6,   -0.5,   -0.5,   -0.5,   -0.5,   -0.5,   -0.4,   -0.4,   -0.5,   -0.4,   -0.4
2000/06/03 12:00,    0.3,    1.1,    1.2,    0.9,    0.3,    0.3,    0.2,    0.2,    0.1,  999.0,    0.1,   -0.0,   -0.1,   -0.1,   -0.1,  999.0,   -0.3,   -0.2,  999.0,  999.0,  999.0,   -0.2,    0.1,   -0.8,   -1.4,   -1.3,   -1.2,   -1.2,   -1.2,   -1.3,   -1.2,   -1.1,   -1.0,   -0.8,   -0.8,   -0.7,   -0.6,   -0.5,   -0.4,   -0.4,   -0.4,   -0.4,  999.0,  999.0,   -0.3,  999.0
2000/06/03 12:10,    0.6,    1.4,    1.4,    0.8,  999.0,    0.3,  999.0,  999.0,    0.2,  999.0,   -0.1,  999.0,  999.0,   -0.4,   -0.3,   -0.4,   -0.5,   -0.3,  999.0,  999.0,  999.0,  999.0,    0.5,   -0.6,   -1.5,   -1.4,   -1.3,   -1.3,   -1.2,   -1.2,   -1.0,   -0.9,   -0.9,   -0.8,   -0.7,   -0.7,   -0.6,   -0.8,   -0.8,  999.0,  999.0,   -0.5,   -0.3,   -0.2,  999.0,   -0.3
2000/06/03 12:20,    0.6,    1.5,    1.4,    0.8,    0.7,    0.4,    0.3,    0.1,    0.2,  999.0,  999.0,    0.0,  999.0,   -0.1,   -0.4,   -0.3,   -0.4,   -0.4,   -0.1,   -0.7,  999.0,    0.0,    0.1,   -1.1,   -1.1,   -1.2,   -1.2,   -1.2,   -1.2,   -1.2,   -1.2,   -1.1,   -1.0,   -0.9,   -0.8,   -0.7,   -0.5,   -0.4,   -0.4,   -0.5,   -0.6,   -0.5,   -0.5,   -0.3,   -0.1,  999.0
2000/06/03 12:30,    0.5,    1.3,    1.5,    0.8,  999.0,    0.4,    0.2,  999.0,   -0.1,  999.0,   -0.1,    0.0,   -0.0,   -0.0,  999.0,    0.1,   -0.1,   -0.0,   -0.4,   -0.2,   -0.8,   -0.7,   -1.2,   -1.2,   -1.2,   -1.2,   -1.4,   -1.3,   -1.2,   -1.2,   -1.1,   -1.0,   -1.0,   -0.9,   -0.9,   -0.8,   -0.7,   -0.7,   -0.6,   -0.8,   -0.6,   -0.6,   -0.6,   -0.6,   -0.4,   -0.4
2000/06/03 12:40,    0.5,    1.0,    1.3,    0.8,    0.6,    0.1,    0.1,  999.0,   -0.2,  999.0,   -0.0,    0.1,    0.3,    0.1,    0.1,    0.1,   -0.0,    0.2,   -0.5,   -0.7,   -1.0,   -1.2,   -1.2,   -1.2,   -1.3,   -1.2,   -1.2,   -1.2,   -1.1,   -1.1,   -1.1,   -1.1,   -1.1,   -1.0,   -1.0,   -1.0,   -1.0,   -0.9,   -0.9,   -0.8,   -0.7,   -0.8,   -0.7,   -0.8,   -0.7,   -0.7
2000/06/03 12:50,  999.0,    0.6,    0.7,    0.5,    0.3,  999.0,  999.0,   -0.0,   -0.1,   -0.2,   -0.1,   -0.0,    0.0,   -0.1,   -0.0,   -0.1,   -0.0,   -0.4,  999.0,  999.0,   -1.0,   -0.8,   -0.7,   -0.9,   -1.1,   -1.3,   -1.3,   -1.3,   -1.2,   -1.1,   -1.1,   -1.1,   -1.2,   -1.2,   -1.2,   -1.1,   -1.0,   -1.0,   -0.9,   -0.8,   -0.8,   -0.7,   -0.7,   -0.7,   -0.6,   -0.6
2000/06/03 13:00,  999.0,  999.0,    0.5,    0.5,    0.3,  999.0,  999.0,   -0.1,   -0.3,   -0.2,   -0.3,  999.0,   -0.0,  999.0,  999.0,  999.0,  999.0,  999.0,  999.0,   -0.1,   -0.5,   -0.6,   -0.8,   -1.2,   -1.3,   -1.4,   -1.4,   -1.4,   -1.3,   -1.2,   -1.3,   -1.3,   -1.3,   -1.2,   -1.1,   -0.9,   -0.9,   -0.9,   -0.8,   -0.8,   -0.7,   -0.7,   -0.7,   -0.7,   -0.7,   -0.7
2000/06/03 13:10,  999.0,    0.9,    0.8,    0.5,    0.3,    0.3,    0.2,   -0.1,   -0.1,   -0.2,  999.0,    0.1,  999.0,  999.0,  999.0,    0.2,    0.2,   -0.0,   -0.8,   -0.7,   -0.9,   -0.9,   -0.9,   -0.7,   -1.3,   -1.3,   -1.2,   -1.2,   -1.0,   -1.0,   -1.0,   -1.1,   -1.0,   -1.0,   -1.0,   -0.9,   -0.9,   -0.9,   -0.8,   -0.8,   -0.7,   -0.7,   -0.6,   -0.5,   -0.5,   -0.5
2000/06/03 13:20,    0.6,    1.0,    1.0,    1.0,    0.6,    0.2,    0.1,    0.2,   -0.2,    0.0,  999.0,    0.0,  999.0,    0.3,    0.3,    0.3,    0.2,   -0.0,   -0.8,   -0.8,   -0.8,   -0.8,   -0.8,   -0.9,   -1.3,   -1.3,   -1.4,   -1.3,   -1.2,   -1.2,   -1.2,   -1.2,   -1.2,   -1.2,   -1.1,   -0.9,   -0.9,   -0.9,   -0.8,   -0.8,   -0.7,   -0.7,   -0.6,   -0.5,   -0.4,   -0.5
2000/06/03 13:30,  999.0,    1.0,    0.9,    0.7,    0.3,    0.0,    0.1,   -0.2,   -0.3,   -0.2,   -0.2,   -0.1,    0.1,  999.0,  999.0,  999.0,    0.1,    0.0,   -0.8,   -1.0,   -1.0,   -0.9,   -1.0,   -1.2,   -1.3,   -1.3,   -1.4,   -1.4,   -1.2,   -1.1,   -1.2,   -1.2,   -1.2,   -1.1,   -1.0,   -1.1,   -1.1,   -1.0,   -0.9,   -0.9,   -0.8,   -0.8,   -0.7,   -0.6,   -0.5,   -0.5
2000/06/03 13:40,    0.2,    0.8,    0.8,    0.7,    0.4,    0.1,    0.1,   -0.1,  999.0,   -0.4,   -0.3,   -0.1,  999.0,  999.0,  999.0,  999.0,  999.0,   -0.5,   -0.5,   -0.8,   -0.9,   -0.9,   -1.1,   -1.2,   -1.3,   -1.2,   -1.1,   -1.0,   -1.0,   -1.0,   -0.9,   -0.9,   -0.9,   -0.9,   -0.9,   -0.9,   -0.9,   -0.8,   -0.8,   -0.8,   -0.7,   -0.6,   -0.5,   -0.5,   -0.5,   -0.5
2000/06/03 13:50,    0.3,    0.8,    0.9,  999.0,    0.5,    0.3,  999.0,   -0.1,  999.0,  999.0,  999.0,  999.0,  999.0,   -0.2,  999.0,   -0.0,  999.0,  999.0,  999.0,  999.0,  999.0,   -0.1,   -0.5,   -0.9,   -1.1,   -1.2,   -1.1,   -1.0,   -1.0,   -1.0,   -1.0,   -1.1,   -1.1,   -1.2,   -1.1,   -1.0,   -1.0,   -0.9,   -0.9,   -0.8,   -0.8,   -0.8,   -0.8,   -0.8,   -0.7,   -0.8
2000/06/03 14:00,    0.5,    1.1,    1.0,    0.7,    0.3,    0.5,   -0.1,   -0.3,   -0.4,   -0.2,   -0.2,  999.0,  999.0,   -0.3,   -0.0,  999.0,   -0.0,  999.0,   -0.2,   -0.6,   -0.8,   -0.5,   -0.5,   -1.0,   -1.2,   -1.2,   -1.2,   -1.1,   -1.0,   -1.0,   -1.0,   -1.0,   -0.9,   -1.0,   -0.9,   -0.8,   -0.7,   -0.8,   -0.8,   -0.7,   -0.7,   -0.6,   -0.5,   -0.6,   -0.5,   -0.4
2000/06/03 14:10,    0.3,    0.6,  999.0,    0.3,    0.3,  999.0,   -0.2,   -0.5,   -0.6,   -0.4,  999.0,   -0.3,   -0.2,  999.0,  999.0,  999.0,  999.0,   -0.0,  999.0,    0.2,   -0.3,   -0.0,   -0.9,   -1.2,   -1.3,   -1.4,   -1.4,   -1.4,   -1.3,   -1.3,   -1.3,   -1.2,   -1.2,   -1.2,   -1.1,   -1.0,   -1.0,   -0.9,   -0.9,   -0.8,   -0.8,   -0.7,   -0.6,   -0.6,   -0.4,   -0.5
2000/06/03 14:20,    0.5,    0.5,  999.0,  999.0,    0.2,    0.2,  999.0,    0.1,    0.1,  999.0,    0.0,    0.1,    0.1,    0.1,  999.0,  999.0,  999.0,  999.0,   -0.1,   -0.1,   -0.7,   -1.0,   -1.3,   -1.5,   -1.7,   -1.6,   -1.5,   -1.5,   -1.5,   -1.4,   -1.4,   -1.4,   -1.3,   -1.3,   -1.2,   -1.2,   -1.2,   -1.1,   -1.0,   -0.9,   -0.9,   -0.8,   -0.8,   -0.9,   -0.8,   -0.8
2000/06/03 14:30,    0.1,    0.6,    0.3,  999.0,    0.2,  999.0,    0.2,  999.0,  999.0,  999.0,  999.0,   -0.0,   -0.0,   -0.1,  999.0,  999.0,    0.1,   -0.1,  999.0,   -0.2,   -1.0,   -0.9,   -1.3,   -1.5,   -1.7,   -1.6,   -1.3,   -1.3,   -1.3,   -1.3,   -1.2,   -1.1,   -1.1,   -1.0,   -1.0,   -0.9,   -1.0,   -0.9,   -0.9,   -0.8,   -0.7,   -0.7,   -0.8,   -0.7,   -0.7,   -0.7
2000/06/03 14:40,    0.3,    0.5,    0.1,   -0.1,   -0.2,   -0.1,   -0.0,  999.0,  999.0,   -0.2,  999.0,  999.0,   -0.1,  999.0,   -0.2,   -0.1,   -0.1,   -0.3,   -0.2,  999.0,  999.0,   -1.2,   -1.2,   -1.4,   -1.6,   -1.5,   -1.3,   -1.2,   -1.2,   -1.2,   -1.3,   -1.2,   -1.2,   -1.1,   -1.0,   -1.0,   -0.9,   -0.9,   -0.8,   -0.7,   -0.7,   -0.6,   -0.4,   -0.4,   -0.3,   -0.6
2000/06/03 14:50,    0.6,    0.6,    0.1,   -0.1,   -0.1,   -0.2,   -0.2,   -0.2,  999.0,   -0.3,   -0.3,   -0.3,  999.0,  999.0,   -0.3,  999.0,  999.0,  999.0,  999.0,  999.0,  999.0,   -0.4,   -0.6,   -1.4,   -1.5,   -1.4,   -1.3,   -1.2,   -1.1,   -1.0,   -1.0,   -1.1,   -1.1,   -1.0,   -1.0,   -1.0,   -0.9,   -0.8,   -0.7,   -0.6,   -0.6,   -0.6,   -0.5,   -0.5,   -0.6,   -0.6
2000/06/03 15:00,  999.0,    0.7,    0.2,  999.0,    0.3,    0.2,    0.0,  999.0,  999.0,    0.1,   -0.0,   -0.0,    0.0,    0.1,  999.0,   -0.0,   -0.1,  999.0,   -0.1,  999.0,   -0.3,   -1.0,   -0.8,   -1.1,   -1.1,   -1.1,   -1.0,   -0.9,   -0.9,   -0.9,   -0.8,   -0.9,   -0.9,   -0.9,   -0.8,   -0.7,   -0.7,   -0.6,   -0.5,   -0.5,   -0.6,   -0.6,   -0.6,   -0.5,   -0.6,   -0.7
2000/06/03 15:10,    0.6,    0.5,    0.4,    0.4,    0.2,  999.0,   -0.2,  999.0,  999.0,    0.0,    0.0,   -0.1,   -0.4,  999.0,  999.0,   -0.3,   -0.3,   -0.1,   -0.3,   -0.3,   -0.7,   -0.8,   -1.2,   -1.3,   -1.1,   -1.2,   -1.2,   -1.1,   -1.0,   -1.0,   -0.8,   -0.9,   -0.9,   -0.9,   -0.8,   -0.7,   -0.7,   -0.7,   -0.7,   -0.6,   -0.6,   -0.6,   -0.5,   -0.6,   -0.5,   -0.6
2000/06/03 15:20,    0.9,    0.5,    0.2,    0.2,  999.0,    0.1,   -0.0,   -0.2,   -0.3,   -0.2,   -0.0,   -0.4,   -0.3,   -0.3,   -0.2,  999.0,   -0.3,   -0.3,   -0.3,  999.0,   -0.8,   -0.7,   -1.0,   -1.1,   -1.1,   -1.1,   -1.3,   -1.2,   -1.1,   -1.1,   -0.9,   -1.0,   -1.0,   -1.0,   -0.9,   -0.9,   -0.9,   -0.9,   -0.8,   -0.8,   -0.7,   -0.8,   -0.7,   -0.8,   -0.8,   -0.8
2000/06/03 15:30,  999.0,    0.6,    0.5,    0.2,    0.0,  999.0,   -0.1,   -0.3,   -0.3,   -0.3,   -0.0,   -0.1,   -0.0,   -0.2,   -0.3,  999.0,  999.0,   -0.2,   -0.3,   -0.7,   -0.8,   -1.0,   -1.1,   -1.2,   -1.1,   -1.2,   -1.2,   -1.2,   -1.1,   -1.0,   -1.0,   -0.9,   -0.9,   -0.9,   -0.8,   -0.8,   -0.8,   -0.8,   -0.8,   -0.7,   -0.7,   -0.7,   -0.7,   -0.7,   -0.7,   -0.8
2000/06/03 15:40,  999.0,  999.0,    0.1,   -0.0,   -0.1,  999.0,    0.1,  999.0,    0.1,  999.0,    0.2,  999.0,  999.0,  999.0,  999.0,  999.0,  999.0,    0.1,    0.0,    0.3,    0.2,   -0.1,   -0.7,   -1.0,   -1.2,   -1.1,   -1.1,   -1.0,   -1.1,   -1.0,   -1.0,   -0.9,   -1.0,   -1.0,   -1.0,   -1.0,   -0.9,   -0.9,   -0.8,   -0.7,   -0.8,   -0.6,   -0.6,   -0.7,   -0.6,   -0.6
2000/06/03 15:50,    0.2,   -0.0,   -0.1,   -0.2,   -0.3,  999.0,   -0.0,    0.0,    0.2,    0.1,  999.0,  999.0,  999.0,  999.0,  999.0,  999.0,   -0.2,   -0.0,   -0.3,   -0.2,   -0.0,   -0.1,   -0.1,   -1.0,   -1.1,   -1.4,   -1.3,   -1.1,   -1.1,   -1.0,   -1.0,   -0.9,   -0.9,   -0.9,   -0.8,   -0.9,   -0.8,   -0.8,   -0.8,   -0.6,   -0.6,   -0.7,   -0.8,   -0.6,   -0.6,   -0.6
2000/06/03 16:00,    0.0,    0.0,    0.1,  999.0,  999.0,   -0.1,   -0.1,   -0.0,  999.0,    0.2,  999.0,  999.0,   -0.1,   -0.1,  999.0,  999.0,   -0.0,    0.0,   -0.0,    0.1,   -0.1,   -0.0,   -0.8,   -1.2,   -1.2,   -1.2,   -1.1,   -1.0,   -0.9,   -0.8,   -0.9,   -0.9,   -0.9,   -0.8,   -0.8,   -0.8,   -0.7,   -0.6,   -0.7,   -0.7,   -0.7,   -0.8,   -0.8,   -0.8,   -0.7,   -0.7
2000/06/03 16:10,    0.1,  999.0,    0.1,  999.0,  999.0,    0.1,  999.0,  999.0,    0.3,  999.0,  999.0,  999.0,  999.0,  999.0,  999.0,  999.0,  999.0,    0.2,    0.2,    0.2,    0.0,   -0.6,   -0.9,   -0.9,   -1.2,   -1.2,   -1.2,   -1.1,   -1.0,   -1.0,   -1.0,   -0.9,   -0.9,   -0.9,   -0.8,   -0.8,   -0.8,   -0.8,   -0.7,   -0.7,   -0.7,   -0.8,   -0.7,   -0.7,   -0.7,   -0.7
2000/06/03 16:20,   -0.1,  999.0,    0.2,    0.1,   -0.0,    0.2,  999.0,  999.0,  999.0,  999.0,  999.0,  999.0,  999.0,  999.0,  999.0,  999.0,  999.0,   -0.1,    0.2,    0.1,   -0.2,   -0.9,   -1.1,   -1.1,   -1.1,   -1.0,   -1.1,   -1.0,   -0.9,   -0.9,   -0.8,   -0.9,   -0.9,   -0.9,   -0.8,   -0.9,   -0.8,   -0.8,   -0.7,   -0.8,   -0.7,   -0.7,   -0.8,   -0.7,   -0.8,   -0.8
2000/06/03 16:30,   -0.3,  999.0,   -0.0,  999.0,  999.0,   -0.1,   -0.1,  999.0,   -0.1,    0.0,    0.0,  999.0,  999.0,  999.0,  999.0,  999.0,  999.0,   -0.1,   -0.1,   -0.1,   -0.1,   -1.3,   -1.4,   -1.1,   -1.2,   -1.3,   -1.1,   -1.0,   -0.9,   -0.9,   -0.8,   -0.9,   -0.9,   -0.9,   -0.9,   -0.9,   -0.9,   -0.8,   -0.9,   -0.8,   -0.8,   -0.8,   -0.7,   -0.7,   -0.6,   -0.6
2000/06/03 16:40,    0.1,    0.0,    0.0,    0.2,   -0.1,  999.0,    0.0,  999.0,   -0.0,  999.0,    0.1,    0.0,  999.0,   -0.1,  999.0,  999.0,    0.4,    0.3,   -0.1,   -0.1,   -0.6,   -1.1,   -1.2,   -1.2,   -1.2,   -1.1,   -1.0,   -0.9,   -0.8,   -0.8,   -0.9,   -0.9,   -1.0,   -1.0,   -1.0,   -0.9,   -0.8,   -0.8,   -0.8,   -0.8,   -0.8,   -0.8,   -0.8,   -0.8,   -0.7,   -0.6
2000/06/03 16:50,  999.0,  999.0,  999.0,  999.0,  999.0,  999.0,  999.0,  999.0,  999.0,  999.0,  999.0,  999.0,  999.0,  999.0,  999.0,  999.0,  999.0,  999.0,  999.0,  999.0,  999.0,  999.0,  999.0,  999.0,  999.0,  999.0,  999.0,  999.0,  999.0,  999.0,  999.0,  999.0,  999.0,  999.0,  999.0,  999.0,  999.0,  999.0,  999.0,  999.0,  999.0,  999.0,  999.0,  999.0,  999.0,  999.0
2000/06/03 17:00,  999.0,  999.0,  999.0,  999.0,  999.0,  999.0,  999.0,  999.0,  999.0,  999.0,  999.0,  999.0,  999.0,  999.0,  999.0,  999.0,  999.0,  999.0,  999.0,  999.0,  999.0,  999.0,  999.0,  999.0,  999.0,  999.0,  999.0,  999.0,  999.0,  999.0,  999.0,  999.0,  999.0,  999.0,  999.0,  999.0,  999.0,  999.0,  999.0,  999.0,  999.0,  999.0,  999.0,  999.0,  999.0,  999.0
2000/06/03 17:10,  999.0,  999.0,  999.0,  999.0,  999.0,  999.0,  999.0,  999.0,  999.0,  999.0,  999.0,  999.0,  999.0,  999.0,  999.0,  999.0,  999.0,  999.0,  999.0,  999.0,  999.0,  999.0,  999.0,  999.0,  999.0,  999.0,  999.0,  999.0,  999.0,  999.0,  999.0,  999.0,  999.0,  999.0,  999.0,  999.0,  999.0,  999.0,  999.0,  999.0,  999.0,  999.0,  999.0,  999.0,  999.0,  999.0
2000/06/03 17:20,  999.0,  999.0,  999.0,  999.0,  999.0,  999.0,  999.0,  999.0,  999.0,  999.0,  999.0,  999.0,  999.0,  999.0,  999.0,  999.0,  999.0,  999.0,  999.0,  999.0,  999.0,  999.0,  999.0,  999.0,  999.0,  999.0,  999.0,  999.0,  999.0,  999.0,  999.0,  999.0,  999.0,  999.0,  999.0,  999.0,  999.0,  999.0,  999.0,  999.0,  999.0,  999.0,  999.0,  999.0,  999.0,  999.0
2000/06/03 17:30,  999.0,  999.0,  999.0,  999.0,  999.0,  999.0,  999.0,  999.0,  999.0,  999.0,  999.0,  999.0,  999.0,  999.0,  999.0,  999.0,  999.0,  999.0,  999.0,  999.0,  999.0,  999.0,  999.0,  999.0,  999.0,  999.0,  999.0,  999.0,  999.0,  999.0,  999.0,  999.0,  999.0,  999.0,  999.0,  999.0,  999.0,  999.0,  999.0,  999.0,  999.0,  999.0,  999.0,  999.0,  999.0,  999.0
2000/06/03 17:40,  999.0,  999.0,  999.0,  999.0,  999.0,  999.0,  999.0,  999.0,  999.0,  999.0,  999.0,  999.0,  999.0,  999.0,  999.0,  999.0,  999.0,  999.0,  999.0,  999.0,  999.0,  999.0,  999.0,  999.0,  999.0,  999.0,  999.0,  999.0,  999.0,  999.0,  999.0,  999.0,  999.0,  999.0,  999.0,  999.0,  999.0,  999.0,  999.0,  999.0,  999.0,  999.0,  999.0,  999.0,  999.0,  999.0
2000/06/03 17:50,   -0.1,    0.1,   -0.2,  999.0,   -0.0,    0.0,  999.0,  999.0,  999.0,  999.0,   -0.1,  999.0,   -0.1,  999.0,    0.2,    0.1,   -0.3,   -0.8,   -1.2,   -1.0,   -1.2,   -1.3,   -1.2,   -1.2,   -1.1,   -1.1,   -1.0,   -1.0,   -1.0,   -1.0,   -1.0,   -1.1,   -1.0,   -1.0,   -0.9,   -0.9,   -0.8,   -0.9,   -0.9,   -0.8,   -0.8,   -0.8,   -0.8,   -0.9,   -1.0,   -0.8
2000/06/03 18:00,   -0.1,    0.1,    0.0,    0.1,    0.0,    0.1,    0.1,    0.1,    0.1,  999.0,   -0.1,  999.0,   -0.1,  999.0,   -0.0,   -0.0,   -0.1,   -0.6,   -0.9,   -1.0,   -1.2,   -1.3,   -1.4,   -1.3,   -1.2,   -1.2,   -1.1,   -1.0,   -1.1,   -1.1,   -1.1,   -1.1,   -1.0,   -1.0,   -1.0,   -0.9,   -0.9,   -0.8,   -0.7,   -0.8,   -0.6,   -0.7,   -0.8,   -1.0,   -1.1,   -1.0
2000/06/03 18:10,  999.0,  999.0,    0.2,  999.0,    0.2,    0.0,   -0.0,   -0.1,    0.2,   -0.2,  999.0,    0.0,   -0.1,    0.2,  999.0,  999.0,   -0.0,    0.1,   -0.2,   -0.8,   -1.2,   -1.3,   -1.4,   -1.3,   -1.2,   -1.2,   -1.0,   -1.0,   -0.9,   -0.9,   -0.8,   -0.8,   -0.8,   -0.8,  999.0,  999.0,   -0.2,   -0.3,   -0.7,   -0.9,   -0.9,   -0.8,   -0.9,   -0.9,   -0.8,   -0.8
2000/06/03 18:20,  999.0,   -0.1,    0.1,  999.0,  999.0,  999.0,  999.0,   -0.0,  999.0,  999.0,    0.0,  999.0,   -0.0,  999.0,  999.0,   -0.2,  999.0,   -0.2,   -0.1,   -0.7,   -1.0,   -1.5,   -1.4,   -1.3,   -1.1,   -1.0,   -0.9,   -0.7,   -0.7,   -0.7,   -0.6,  999.0,  999.0,  999.0,  999.0,  999.0,   -0.1,  999.0,   -0.7,   -0.8,   -0.9,   -0.8,   -0.8,   -0.8,   -0.8,   -0.8
2000/06/03 18:30,  999.0,  999.0,   -0.1,  999.0,  999.0,   -0.2,   -0.2,  999.0,   -0.2,    0.1,   -0.2,   -0.0,    0.0,   -0.2,  999.0,  999.0,    0.2,    0.1,   -0.3,   -0.8,   -1.1,   -1.4,   -1.4,   -1.3,   -1.2,   -1.1,   -1.0,   -0.9,   -0.9,   -0.8,   -0.9,  999.0,  999.0,  999.0,  999.0,   -0.1,  999.0,   -0.3,   -0.9,   -1.0,   -1.0,   -0.9,   -0.8,   -0.8,   -0.9,   -0.8
2000/06/03 18:40,    0.0,  999.0,   -0.1,   -0.1,   -0.4,   -0.1,  999.0,  999.0,    0.1,    0.2,    0.2,   -0.1,   -0.2,   -0.2,  999.0,  999.0,  999.0,   -0.2,   -0.1,   -0.3,   -0.8,   -1.2,   -1.2,   -1.4,   -1.1,   -0.9,   -0.9,   -0.8,   -0.7,   -0.8,   -0.8,   -0.8,   -0.7,   -0.7,   -0.6,   -0.3,   -0.2,   -0.5,   -0.5,   -0.8,   -0.7,   -0.8,   -0.9,   -0.8,   -0.7,   -0.8
2000/06/03 18:50,   -0.0,   -0.1,    0.3,    0.5,  999.0,    0.2,  999.0,   -0.1,   -0.0,    0.1,   -0.2,   -0.1,   -0.6,   -0.3,   -0.2,  999.0,   -0.3,   -0.2,  999.0,   -0.2,   -0.1,   -0.2,   -0.3,   -0.7,   -1.1,   -0.8,   -0.6,   -0.9,   -0.9,   -0.9,   -0.9,   -0.9,   -0.7,   -0.8,   -0.6,   -0.8,   -0.8,   -0.8,   -0.7,   -0.7,   -0.8,   -0.9,   -1.0,   -0.9,   -0.9,   -0.9
2000/06/03 19:00,   -0.2,   -0.1,   -0.0,    0.0,   -0.0,    0.0,  999.0,   -0.2,   -0.5,   -0.3,  999.0,  999.0,   -0.2,   -0.1,    0.0,   -0.1,   -0.3,   -0.2,   -0.2,   -0.4,   -0.3,   -0.3,   -0.6,   -0.4,   -0.5,   -0.3,   -0.2,   -0.5,   -0.6,   -0.7,   -0.5,   -0.3,  999.0,  999.0,   -0.0,  999.0,   -0.8,  999.0,  999.0,  999.0,   -0.4,   -0.7,   -0.8,   -0.8,   -0.9,   -0.9
2000/06/03 19:10,    0.1,    0.1,    0.1,  999.0,    0.0,  999.0,  999.0,   -0.4,  999.0,   -0.3,   -0.2,   -0.3,  999.0,  999.0,   -0.1,   -0.1,   -0.3,   -0.2,   -0.2,   -0.2,   -0.3,   -1.2,   -1.2,   -1.3,   -1.2,   -0.9,   -0.8,   -0.5,  999.0,  999.0,  999.0,  999.0,  999.0,  999.0,  999.0,  999.0,  999.0,  999.0,  999.0,  999.0,   -0.5,   -0.7,   -0.7,   -0.8,   -0.9,   -0.8
2000/06/03 19:20,    0.1,  999.0,   -0.1,  999.0,   -0.0,  999.0,   -0.5,   -0.4,   -0.4,   -0.5,   -0.3,   -0.2,   -0.3,   -0.2,   -0.2,  999.0,   -0.2,   -0.2,   -0.1,   -0.1,   -0.0,   -0.1,   -0.2,   -0.6,   -1.0,   -0.6,   -0.5,   -0.2,  999.0,  999.0,  999.0,  999.0,  999.0,  999.0,  999.0,  999.0,  999.0,  999.0,   -0.9,   -0.7,   -0.6,   -0.8,   -0.8,   -0.8,   -0.9,   -0.8
2000/06/03 19:30,    0.4,  999.0,  999.0,  999.0,    0.2,    0.1,    0.1,    0.2,    0.1,    0.4,  999.0,    0.2,    0.4,    0.4,    0.4,    0.3,    0.4,  999.0,  999.0,  999.0,  999.0,    0.1,    0.2,    0.1,   -0.4,   -0.6,   -0.5,   -0.2,   -0.4,   -0.5,  999.0,  999.0,  999.0,  999.0,  999.0,   -0.7,   -0.7,   -0.7,   -0.6,  999.0,   -0.5,   -0.8,   -0.8,   -0.7,   -0.8,   -1.0
2000/06/03 19:40,  999.0,  999.0,  999.0,  999.0,  999.0,    0.1,   -0.0,  999.0,  999.0,  999.0,    0.1,  999.0,    0.3,    0.3,    0.4,  999.0,  999.0,  999.0,  999.0,  999.0,  999.0,    0.1,   -0.4,   -0.9,   -1.1,   -1.2,   -1.1,   -0.8,   -0.6,   -0.5,   -0.5,   -0.5,   -0.7,  999.0,   -0.7,   -0.4,   -0.3,   -0.8,   -0.7,   -0.6,   -0.5,   -0.6,   -0.7,   -0.8,   -0.6,   -0.7
2000/06/03 19:50,  999.0,  999.0,  999.0,   -0.1,    0.1,    0.1,   -0.0,    0.3,    0.4,    0.4,  999.0,    0.3,    0.3,    0.3,  999.0,  999.0,  999.0,  999.0,  999.0,    0.1,    0.3,   -0.1,   -0.9,   -1.3,   -1.1,   -1.1,   -0.9,   -0.7,   -0.5,   -0.5,   -0.5,   -0.5,   -0.6,   -0.6,  999.0,  999.0,  999.0,   -0.5,   -0.6,   -0.5,   -0.5,   -0.6,   -0.4,   -0.5,   -0.4,   -0.4
2000/06/03 20:00,    0.2,  999.0,   -0.2,   -0.3,   -0.1,   -0.2,   -0.1,    0.1,    0.3,    0.1,  999.0,  999.0,  999.0,    0.2,    0.2,    0.2,  999.0,    0.3,    0.0,   -0.1,   -0.2,   -0.4,   -1.0,   -1.0,   -1.1,   -1.0,   -1.0,   -0.9,   -0.7,   -0.6,   -0.6,   -0.5,   -0.5,  999.0,  999.0,   -0.4,   -0.2,   -0.4,   -0.4,   -0.5,   -0.5,   -0.5,   -0.4,   -0.5,   -0.5,   -0.5
2000/06/03 20:10,  999.0,  999.0,   -0.3,  999.0,   -0.1,   -0.1,  999.0,   -0.1,   -0.0,    0.3,  999.0,    0.1,    0.1,    0.3,    0.4,  999.0,  999.0,   -0.0,    0.1,    0.0,   -0.1,   -0.4,   -1.0,   -1.1,   -1.1,   -0.9,   -0.7,   -0.7,   -0.6,   -0.4,   -0.4,   -0.5,   -0.4,   -0.8,   -0.4,   -0.7,   -0.7,   -0.7,   -0.7,   -0.7,   -0.6,   -0.6,   -0.7,   -0.7,   -0.7,   -0.8
2000/06/03 20:20,  999.0,  999.0,   -0.1,  999.0,  999.0,  999.0,  999.0,  999.0,  999.0,   -0.4,   -0.4,   -0.2,    0.0,   -0.0,    0.3,  999.0,  999.0,  999.0,    0.4,    0.0,    0.0,   -0.6,   -0.8,   -1.1,   -1.2,   -1.1,   -1.0,   -0.8,   -0.7,   -0.7,   -0.6,   -0.7,   -0.7,   -0.7,   -0.7,   -0.7,   -0.7,   -0.7,   -0.6,   -0.6,   -0.6,   -0.6,   -0.6,   -0.7,   -0.8,   -0.7
2000/06/03 20:30,  999.0,  999.0,    0.1,  999.0,  999.0,  999.0,  999.0,  999.0,   -0.5,   -0.5,  999.0,  999.0,   -0.1,    0.1,  999.0,  999.0,  999.0,  999.0,   -0.2,    0.0,   -0.0,   -0.9,   -1.0,   -1.0,   -1.1,   -1.0,   -1.0,   -0.8,   -0.8,   -0.8,   -0.8,   -0.8,   -0.8,   -0.8,   -0.8,   -0.7,   -0.6,   -0.5,   -0.5,   -0.5,   -0.5,   -0.5,   -0.6,   -0.6,   -0.6,   -0.5
2000/06/03 20:40,  999.0,  999.0,    0.2,  999.0,   -0.2,  999.0,  999.0,  999.0,   -0.4,   -0.5,   -0.8,   -0.5,   -0.4,   -0.5,   -0.4,  999.0,   -0.2,  999.0,  999.0,   -0.0,   -0.1,   -0.3,   -1.1,   -1.3,   -1.3,   -1.2,   -1.1,   -1.0,   -1.0,   -1.0,   -1.0,   -1.0,   -0.9,   -0.9,   -0.8,   -0.7,   -0.8,   -0.8,   -0.6,   -0.6,   -0.5,   -0.5,   -0.5,   -0.5,   -0.5,   -0.5
2000/06/03 20:50,   -0.1,    0.1,    0.1,   -0.2,  999.0,  999.0,  999.0,   -0.6,  999.0,   -0.5,   -0.3,   -0.4,   -0.4,   -0.5,   -0.5,  999.0,   -0.2,   -0.5,   -0.2,   -0.2,   -0.3,   -0.4,   -1.1,   -1.5,   -1.5,   -1.5,   -1.3,   -1.2,   -1.2,   -1.1,   -1.0,   -0.9,   -0.8,   -0.7,   -0.7,   -0.6,   -0.6,   -0.8,   -0.6,   -0.6,   -0.6,   -0.7,   -0.6,   -0.6,   -0.4,   -0.5
2000/06/03 21:00,  999.0,    0.3,    0.5,  999.0,  999.0,    0.3,  999.0,  999.0,   -0.1,   -0.6,   -0.5,   -0.4,   -0.2,    0.0,   -0.3,  999.0,   -0.3,   -0.4,   -0.5,   -0.8,   -1.4,   -1.4,   -1.4,   -1.5,   -1.4,   -1.3,   -1.3,   -1.2,   -1.2,   -1.2,   -1.0,   -1.0,   -0.9,   -0.8,   -0.8,   -0.8,   -0.9,   -0.7,   -0.8,   -0.7,   -0.7,   -0.7,   -0.6,   -0.6,   -0.7,   -0.7
2000/06/03 21:10,  999.0,    0.4,   -0.0,    0.1,    0.2,   -0.1,   -0.3,   -0.3,   -0.1,   -0.3,   -0.4,   -0.3,   -0.2,    0.1,   -0.4,   -0.4,   -0.4,   -0.6,   -0.6,   -0.6,   -0.6,   -0.9,   -1.4,   -1.6,   -1.5,   -1.4,   -1.2,   -1.2,   -1.2,   -1.2,   -1.2,   -1.1,   -1.1,   -1.1,   -1.0,   -0.8,   -0.9,   -0.9,   -1.0,   -1.0,   -0.9,   -0.8,   -0.8,   -0.8,   -0.9,   -0.7
2000/06/03 21:20,  999.0,  999.0,    0.1,   -0.1,    0.4,    0.2,   -0.1,   -0.3,   -0.4,   -0.4,   -0.4,   -0.4,   -0.6,   -0.2,   -0.2,   -0.2,   -0.1,  999.0,  999.0,  999.0,   -0.1,   -0.2,   -0.7,   -1.3,   -1.4,   -1.3,   -1.1,   -1.1,   -1.1,   -1.1,   -1.2,   -1.2,   -1.1,   -1.1,   -0.9,   -0.8,   -0.9,   -1.0,   -1.0,   -1.0,   -1.0,   -1.0,   -0.9,   -0.8,   -0.9,   -0.8
2000/06/03 21:30,  999.0,    0.4,    0.1,   -0.0,  999.0,   -0.2,    0.4,   -0.3,   -0.2,   -0.0,  999.0,   -0.4,   -0.5,   -0.5,   -0.4,   -0.5,  999.0,  999.0,  999.0,   -0.4,   -0.3,   -0.3,   -1.0,   -1.2,   -1.4,   -1.4,   -1.3,   -1.2,   -1.2,   -1.1,   -1.1,   -1.0,   -0.9,   -0.9,   -0.8,   -0.8,   -0.6,   -0.7,   -0.6,  999.0,   -0.7,  999.0,  999.0,  999.0,  999.0,  999.0
2000/06/03 21:40,  999.0,  999.0,  999.0,   -0.0,   -0.1,   -0.1,   -0.2,   -0.1,    0.1,   -0.3,   -0.3,   -0.5,   -1.0,   -0.9,   -0.4,   -0.8,   -0.7,    0.4,    0.3,    0.2,    0.3,    0.1,   -0.6,   -0.9,   -0.8,   -0.9,   -0.8,   -0.7,   -0.7,   -0.6,   -0.6,   -0.6,   -0.8,  999.0,  999.0,   -0.7,  999.0,  999.0,  999.0,  999.0,  999.0,  999.0,  999.0,  999.0,  999.0,  999.0
2000/06/03 21:50,  999.0,   -0.3,    0.2,  999.0,  999.0,   -0.2,    0.1,    0.1,    0.1,   -0.2,   -0.5,   -0.5,   -0.3,   -0.2,   -0.0,  999.0,  999.0,    0.1,  999.0,    0.3,    0.4,    0.4,    0.1,   -0.4,   -0.5,   -0.9,   -0.7,   -0.7,   -0.7,   -0.6,   -0.5,   -0.5,   -0.6,   -0.4,   -0.3,  999.0,  999.0,  999.0,  999.0,  999.0,  999.0,  999.0,  999.0,  999.0,  999.0,  999.0
2000/06/03 22:00,  999.0,   -0.3,    0.1,  999.0,  999.0,  999.0,   -0.3,   -0.6,   -0.3,   -0.4,   -0.4,   -0.3,   -0.4,  999.0,   -0.2,  999.0,   -0.2,   -0.1,  999.0,   -0.2,    0.1,   -0.2,   -0.2,   -0.3,   -1.0,   -1.1,   -0.9,   -1.0,   -0.7,   -0.6,   -0.5,   -0.5,   -0.5,   -0.4,   -0.3,   -0.1,  999.0,  999.0,  999.0,  999.0,  999.0,  999.0,  999.0,  999.0,  999.0,  999.0
2000/06/03 22:10,  999.0,    0.2,  999.0,   -0.1,   -0.1,   -0.0,  999.0,  999.0,   -0.3,   -0.4,  999.0,   -0.3,   -0.5,   -0.5,   -0.5,  999.0,   -0.4,   -0.4,  999.0,  999.0,   -0.5,  999.0,   -0.4,    0.1,   -0.6,   -0.7,   -1.0,   -1.0,   -0.8,   -0.7,   -0.6,   -0.6,   -0.9,   -0.8,   -0.6,   -0.4,  999.0,  999.0,  999.0,  999.0,  999.0,  999.0,  999.0,  999.0,  999.0,   -1.1
2000/06/03 22:20,  999.0,    0.2,   -0.2,    0.0,   -0.1,    0.0,    0.1,   -0.1,    0.2,   -0.2,   -0.0,   -0.2,   -0.1,   -0.2,   -0.3,  999.0,   -0.3,  999.0,  999.0,  999.0,  999.0,  999.0,  999.0,    0.2,    0.1,    0.2,    0.0,   -0.6,   -0.6,   -0.5,   -0.5,   -0.6,   -0.6,   -0.6,   -0.5,   -0.3,  999.0,  999.0,  999.0,  999.0,  999.0,  999.0,  999.0,   -0.7,   -0.7,   -0.8
2000/06/03 22:30,  999.0,   -0.2,   -0.0,    0.2,    0.1,    0.0,   -0.1,   -0.2,   -0.0,   -0.1,   -0.3,   -0.2,   -0.2,  999.0,   -0.3,  999.0,   -0.2,   -0.2,  999.0,  999.0,  999.0,  999.0,  999.0,    0.1,  999.0,  999.0,   -0.0,   -0.4,   -0.6,   -0.6,   -0.7,   -0.4,   -0.5,   -0.8,   -0.6,   -0.3,   -0.2,  999.0,  999.0,  999.0,  999.0,  999.0,  999.0,  999.0,   -0.5,  999.0
2000/06/03 22:40,  999.0,  999.0,    0.2,    0.0,    0.1,    0.3,   -0.2,    0.3,  999.0,    0.0,   -0.1,   -0.3,   -0.4,   -0.5,   -0.4,   -0.3,   -0.2,   -0.3,  999.0,  999.0,  999.0,  999.0,  999.0,    0.1,    0.1,  999.0,    0.2,   -0.7,   -0.9,   -0.9,   -0.7,  999.0,  999.0,   -0.8,  999.0,   -0.2,  999.0,  999.0,  999.0,  999.0,   -0.7,  999.0,   -0.8,   -0.8,   -0.7,   -0.6
2000/06/03 22:50,  999.0,    0.1,    0.0,   -0.2,    0.2,    0.4,    0.3,    0.0,   -0.2,   -0.2,   -0.2,  999.0,  999.0,  999.0,  999.0,  999.0,   -0.2,   -0.1,  999.0,  999.0,  999.0,  999.0,  999.0,  999.0,   -0.0,  999.0,    0.0,   -0.4,   -0.6,   -0.7,   -0.6,   -0.4,   -0.8,   -0.6,   -0.2,    0.0,  999.0,  999.0,  999.0,  999.0,  999.0,  999.0,  999.0,  999.0,  999.0,   -0.9
2000/06/03 23:00,  999.0,   -0.1,   -0.1,   -0.3,   -0.5,    0.0,   -0.5,  999.0,   -0.4,   -0.2,   -0.2,   -0.1,   -0.1,   -0.2,   -0.2,  999.0,   -0.4,   -0.4,  999.0,  999.0,  999.0,  999.0,  999.0,  999.0,  999.0,  999.0,   -0.1,    0.0,  999.0,  999.0,  999.0,   -0.1,  999.0,   -0.6,  999.0,   -0.3,  999.0,  999.0,  999.0,  999.0,  999.0,   -0.9,   -1.0,   -0.8,   -0.7,   -0.9
2000/06/03 23:10,    0.5,    0.0,   -0.3,    0.0,    0.0,    0.2,   -0.2,   -0.2,   -0.2,  999.0,   -0.1,    0.0,   -0.0,   -0.0,   -0.1,  999.0,   -0.0,    0.0,  999.0,  999.0,  999.0,  999.0,  999.0,  999.0,  999.0,  999.0,    0.2,    0.1,  999.0,  999.0,    0.2,  999.0,  999.0,  999.0,  999.0,   -0.2,  999.0,  999.0,  999.0,  999.0,  999.0,  999.0,  999.0,  999.0,  999.0,  999.0
2000/06/03 23:20,  999.0,    0.1,  999.0,  999.0,   -0.2,   -0.2,   -0.1,   -0.4,   -0.3,   -0.4,   -0.4,   -0.1,   -0.2,   -0.1,   -0.0,   -0.0,    0.0,  999.0,  999.0,  999.0,  999.0,  999.0,  999.0,  999.0,  999.0,  999.0,    0.1,   -0.1,  999.0,   -0.0,   -0.2,  999.0,  999.0,  999.0,   -0.1,   -0.1,  999.0,  999.0,  999.0,  999.0,  999.0,  999.0,  999.0,   -0.5,   -0.4,   -0.3
2000/06/03 23:30,    0.3,    0.0,  999.0,   -0.4,   -0.1,   -0.4,   -0.1,   -0.2,   -0.4,   -0.1,   -0.3,   -0.5,   -0.4,   -0.3,   -0.3,   -0.4,  999.0,  999.0,  999.0,  999.0,  999.0,  999.0,  999.0,  999.0,  999.0,  999.0,   -0.4,   -0.3,  999.0,  999.0,  999.0,  999.0,  999.0,  999.0,    0.0,    0.1,  999.0,  999.0,  999.0,  999.0,  999.0,  999.0,  999.0,   -0.4,   -0.3,   -0.3
2000/06/03 23:40,    0.1,    0.1,   -0.2,   -0.2,   -0.6,   -0.5,    0.1,   -0.1,   -0.2,   -0.2,    0.1,   -0.3,   -0.3,   -0.4,   -0.3,   -0.2,   -0.1,   -0.2,  999.0,  999.0,  999.0,  999.0,  999.0,  999.0,  999.0,  999.0,   -0.3,   -0.2,   -0.3,  999.0,  999.0,   -0.1,   -0.3,   -0.1,    0.1,  999.0,  999.0,  999.0,  999.0,  999.0,  999.0,  999.0,  999.0,  999.0,   -0.5,   -0.6
2000/06/03 23:50,    0.1,    0.3,    0.1,   -0.1,   -0.6,   -0.6,   -0.6,   -0.3,    0.2,    0.2,    0.0,  999.0,  999.0,    0.2,  999.0,   -0.1,    0.0,    0.2,  999.0,  999.0,  999.0,  999.0,  999.0,  999.0,  999.0,  999.0,  999.0,   -0.3,   -0.3,  999.0,  999.0,  999.0,   -0.1,  999.0,  999.0,  999.0,  999.0,  999.0,  999.0,  999.0,  999.0,  999.0,   -0.5,   -0.7,   -0.7,   -0.6
